sat.trackr.live / text

‹ back to catalog

STARLINK-3532

NORAD 51727 · 2022-016P

PAYLOAD ACTIVE UNKNOWN

§ Identity

Operator
Country
US
Launch date
2022-02-21
Launch site
AFETR
Launch vehicle
Mass (kg)
RCS (m²)

Purposes: comms

External: N2YO · Heavens-Above · Gunter

§ Orbital elements

Epoch: 2026-09-19T22:22:14.075040Z

Period
93.85 min
Inclination
53.1594°
Eccentricity
0.0001457
Mean motion
15.34404820 rev/d
Perigee alt
461.7 km
Apogee alt
463.7 km
Semi-major
6,840.8 km
B*
-4.9786e-5
RAAN
166.0210°
Arg perigee
91.1955°
Mean anomaly
268.9215°
Rev number
25,289

§ Raw data

STARLINK-35321 51727U 22016P   26262.93210735 -.00002058  00000+0 -49786-4 0  99952 51727  53.1594 166.0210 0001457  91.1955 268.9215 15.34404820252894

JSON: /api/v1/satellites/51727 · /tle

For live sub-satellite position, see the globe view (requires WebGL).

§ Visibility from observer

Set your observer location to see the next 7 days of passes ≥ 10°. The values pass through the URL so the page stays shareable.

No JS? Fill the form by hand. The geolocation button needs JavaScript.